Вернуться в каталог

SL-8 R/B

АктивенPO
NORAD 16369·ROCKET BODY·🇷🇺 Russia

Запущен Dec 19, 1985 с Plesetsk Cosmodrome

Loading…

Ближайшие Пролёты (ближайшие 24 часа)

TLE

СвежийSource: Space-Track

Эпоха: Sep 14, 2026, 17:22 UTC

1 16369U 85116B   26257.72379142  .00000049  00000-0  33378-4 0  9994
2 16369  82.9414 356.6702 0037442  69.7456  92.9768 13.77204348 46359

Отслеживайте SL-8 R/B в реальном времени с AllMySat

Download on the App Store